Location: Bear Valley Community Church - Hurst
(32.8460°N, 97.1828°W)
Time: 12:20:05
(UTC+00:00)

Cosmos 2228 Rocket - Visible Passes

Search period start: 28 June 2022 00:00
Search period end: 08 July 2022 00:00
Orbit: 616 x 653 km, 82.5° (Epoch: 28 June)

Date Brightness Start Highest point End Pass type
(mag) Time Alt. Az. Time Alt. Az. Time Alt. Az.
28 Jun 4.9 10:18:48 10° NNE 10:22:50 34° E 10:26:53 10° SE visible
29 Jun 3.3 10:40:41 10° N 10:45:08 80° E 10:49:36 10° S visible
30 Jun 6.1 09:27:04 10° NE 09:28:56 12° ENE 09:30:48 10° E visible
01 Jul 5.2 09:47:36 10° NNE 09:51:24 27° ENE 09:55:12 10° SE visible
02 Jul 3.6 10:09:18 10° N 10:13:43 62° E 10:18:09 10° SSE visible
03 Jul 3.2 10:31:33 10° NNW 10:35:55 55° W 10:40:18 10° S visible
04 Jul 5.4 09:16:29 10° NNE 09:19:56 22° ENE 09:23:25 10° SE visible
04 Jul 4.3 10:54:25 10° NW 10:58:00 24° W 11:01:37 10° SW visible
05 Jul 4.0 09:37:58 10° N 09:42:18 48° E 09:46:39 10° SSE visible
06 Jul 3.0 10:00:05 10° N 10:04:32 71° W 10:08:50 11° S visible
07 Jul 5.6 08:45:27 10° NNE 08:48:28 18° ENE 08:51:30 10° ESE visible
07 Jul 4.0 10:22:44 10° NNW 10:26:39 30° W 10:29:59 13° SSW visible
